Time,TemperatureF,DewpointF,PressureIn,WindDirection,WindDirectionDegrees,WindSpeedMPH,WindSpeedGustMPH,Humidity,HourlyPrecipIn,Conditions,Clouds,dailyrainin,SolarRadiationWatts/m^2,SoftwareType,DateUTC
2013-10-07 00:01:00,69.8,62.9,29.87,SE,138,4.0,12.0,79,0.00,,,0.00,0,HR-IXPWINDi_r2_v1.2.,2013-10-07 04:01:00,
2013-10-07 00:06:00,69.5,63.4,29.87,South,170,4.0,12.0,81,0.00,,,0.00,0,HR-IXPWINDi_r2_v1.2.,2013-10-07 04:06:00,
2013-10-07 00:11:00,68.8,63.4,29.87,South,180,2.0,10.0,83,0.00,,,0.00,0,HR-IXPWINDi_r2_v1.2.,2013-10-07 04:11:00,
2013-10-07 00:16:00,68.1,63.0,29.87,SSE,147,0.0,6.0,84,0.00,,,0.00,0,HR-IXPWINDi_r2_v1.2.,2013-10-07 04:16:00,
2013-10-07 00:21:00,67.6,63.9,29.87,SSE,147,0.0,6.0,88,0.00,,,0.01,0,HR-IXPWINDi_r2_v1.2.,2013-10-07 04:21:00,
2013-10-07 00:26:00,66.8,63.4,29.88,SSE,147,0.0,4.0,89,0.00,,,0.01,0,HR-IXPWINDi_r2_v1.2.,2013-10-07 04:26:00,
2013-10-07 00:32:00,66.3,63.5,29.87,SSE,158,2.0,4.0,91,0.00,,,0.01,0,HR-IXPWINDi_r2_v1.2.,2013-10-07 04:32:00,
2013-10-07 00:37:00,66.0,63.2,29.87,SSE,158,0.0,4.0,91,0.00,,,0.01,0,HR-IXPWINDi_r2_v1.2.,2013-10-07 04:37:00,
2013-10-07 00:42:00,65.9,63.4,29.87,SSE,158,1.0,4.0,92,0.00,,,0.01,0,HR-IXPWINDi_r2_v1.2.,2013-10-07 04:42:00,
2013-10-07 00:47:00,65.8,63.7,29.87,North,355,4.0,5.0,93,0.00,,,0.02,0,HR-IXPWINDi_r2_v1.2.,2013-10-07 04:47:00,
2013-10-07 00:52:00,65.7,63.6,29.86,North,9,1.0,5.0,93,0.00,,,0.02,0,HR-IXPWINDi_r2_v1.2.,2013-10-07 04:52:00,
2013-10-07 00:57:00,65.5,63.4,29.86,North,360,0.0,5.0,93,0.00,,,0.02,0,HR-IXPWINDi_r2_v1.2.,2013-10-07 04:57:00,
2013-10-07 01:02:00,65.3,63.2,29.86,North,355,0.0,3.0,93,0.00,,,0.02,0,HR-IXPWINDi_r2_v1.2.,2013-10-07 05:02:00,
2013-10-07 01:07:00,65.3,63.5,29.85,North,5,2.0,4.0,94,0.00,,,0.02,0,HR-IXPWINDi_r2_v1.2.,2013-10-07 05:07:00,
2013-10-07 01:12:00,65.2,63.4,29.84,North,351,4.0,5.0,94,0.00,,,0.02,0,HR-IXPWINDi_r2_v1.2.,2013-10-07 05:12:00,
2013-10-07 01:18:00,65.1,63.3,29.83,NE,52,2.0,5.0,94,0.00,,,0.03,0,HR-IXPWINDi_r2_v1.2.,2013-10-07 05:18:00,
2013-10-07 01:23:00,65.0,63.2,29.84,NNE,24,0.0,6.0,94,0.00,,,0.03,0,HR-IXPWINDi_r2_v1.2.,2013-10-07 05:23:00,
2013-10-07 01:28:00,65.0,63.2,29.83,North,355,3.0,6.0,94,0.05,,,0.04,0,HR-IXPWINDi_r2_v1.2.,2013-10-07 05:28:00,
2013-10-07 01:33:00,64.9,63.1,29.83,North,355,5.0,6.0,94,0.05,,,0.04,0,HR-IXPWINDi_r2_v1.2.,2013-10-07 05:33:00,
2013-10-07 01:38:00,64.8,63.0,29.83,North,349,3.0,6.0,94,0.04,,,0.04,0,HR-IXPWINDi_r2_v1.2.,2013-10-07 05:38:00,
2013-10-07 01:43:00,64.6,62.8,29.84,NNW,331,0.0,5.0,94,0.00,,,0.04,0,HR-IXPWINDi_r2_v1.2.,2013-10-07 05:43:00,
2013-10-07 01:49:00,64.5,62.7,29.84,North,11,1.0,5.0,94,0.00,,,0.05,0,HR-IXPWINDi_r2_v1.2.,2013-10-07 05:49:00,
2013-10-07 01:54:00,64.3,62.5,29.83,NNE,19,0.0,5.0,94,0.00,,,0.05,0,HR-IXPWINDi_r2_v1.2.,2013-10-07 05:54:00,
2013-10-07 01:59:00,64.2,62.4,29.82,NNE,33,2.0,5.0,94,0.00,,,0.05,0,HR-IXPWINDi_r2_v1.2.,2013-10-07 05:59:00,
2013-10-07 02:04:00,64.0,62.2,29.81,NNE,19,0.0,5.0,94,0.00,,,0.05,0,HR-IXPWINDi_r2_v1.2.,2013-10-07 06:04:00,
2013-10-07 02:10:00,64.1,62.6,29.82,NNW,336,3.0,4.0,95,0.00,,,0.05,0,HR-IXPWINDi_r2_v1.2.,2013-10-07 06:10:00,
2013-10-07 02:15:00,64.2,62.7,29.82,NNW,344,0.0,4.0,95,0.00,,,0.05,0,HR-IXPWINDi_r2_v1.2.,2013-10-07 06:15:00,
2013-10-07 02:20:00,63.9,62.1,29.81,ESE,111,0.0,6.0,94,0.00,,,0.05,0,HR-IXPWINDi_r2_v1.2.,2013-10-07 06:20:00,
2013-10-07 02:25:00,63.6,61.8,29.81,ESE,108,1.0,6.0,94,0.00,,,0.06,0,HR-IXPWINDi_r2_v1.2.,2013-10-07 06:25:00,
2013-10-07 02:30:00,63.6,62.1,29.80,NNE,15,2.0,5.0,95,0.00,,,0.06,0,HR-IXPWINDi_r2_v1.2.,2013-10-07 06:30:00,
2013-10-07 02:35:00,63.6,62.1,29.81,North,360,0.0,5.0,95,0.00,,,0.06,0,HR-IXPWINDi_r2_v1.2.,2013-10-07 06:35:00,
2013-10-07 02:40:00,63.6,62.1,29.81,NNE,15,0.0,5.0,95,0.00,,,0.06,0,HR-IXPWINDi_r2_v1.2.,2013-10-07 06:40:00,
2013-10-07 02:46:00,63.5,62.0,29.81,ESE,117,2.0,5.0,95,0.00,,,0.06,0,HR-IXPWINDi_r2_v1.2.,2013-10-07 06:46:00,
2013-10-07 02:51:00,63.2,61.7,29.80,ESE,117,0.0,5.0,95,0.00,,,0.06,0,HR-IXPWINDi_r2_v1.2.,2013-10-07 06:51:00,
2013-10-07 02:56:00,63.2,61.7,29.80,ESE,109,0.0,5.0,95,0.00,,,0.06,0,HR-IXPWINDi_r2_v1.2.,2013-10-07 06:56:00,
2013-10-07 03:01:00,63.2,61.7,29.80,ESE,109,0.0,0.0,95,0.00,,,0.06,0,HR-IXPWINDi_r2_v1.2.,2013-10-07 07:01:00,
2013-10-07 03:06:00,63.0,61.5,29.80,ESE,109,0.0,0.0,95,0.00,,,0.06,0,HR-IXPWINDi_r2_v1.2.,2013-10-07 07:06:00,
2013-10-07 03:12:00,62.8,61.3,29.79,ESE,109,0.0,0.0,95,0.00,,,0.06,0,HR-IXPWINDi_r2_v1.2.,2013-10-07 07:12:00,
2013-10-07 03:17:00,62.7,61.5,29.79,ESE,109,0.0,0.0,96,0.00,,,0.06,0,HR-IXPWINDi_r2_v1.2.,2013-10-07 07:17:00,
2013-10-07 03:22:00,62.7,61.5,29.79,ESE,109,0.0,0.0,96,0.00,,,0.07,0,HR-IXPWINDi_r2_v1.2.,2013-10-07 07:22:00,
2013-10-07 03:27:00,62.7,61.5,29.79,ESE,109,0.0,0.0,96,0.00,,,0.07,0,HR-IXPWINDi_r2_v1.2.,2013-10-07 07:27:00,
2013-10-07 03:32:00,62.7,61.5,29.79,ESE,109,0.0,0.0,96,0.05,,,0.08,0,HR-IXPWINDi_r2_v1.2.,2013-10-07 07:32:00,
2013-10-07 03:38:00,62.7,61.5,29.79,ESE,109,0.0,0.0,96,0.05,,,0.08,0,HR-IXPWINDi_r2_v1.2.,2013-10-07 07:38:00,
2013-10-07 03:43:00,62.6,61.4,29.79,ESE,109,0.0,0.0,96,0.05,,,0.08,0,HR-IXPWINDi_r2_v1.2.,2013-10-07 07:43:00,
2013-10-07 03:48:00,62.6,61.4,29.79,ESE,109,0.0,0.0,96,0.04,,,0.08,0,HR-IXPWINDi_r2_v1.2.,2013-10-07 07:48:00,
2013-10-07 03:53:00,62.5,61.3,29.79,ESE,109,0.0,0.0,96,0.00,,,0.08,0,HR-IXPWINDi_r2_v1.2.,2013-10-07 07:53:00,
2013-10-07 03:58:00,62.5,61.3,29.78,NE,49,0.0,0.0,96,0.00,,,0.08,0,HR-IXPWINDi_r2_v1.2.,2013-10-07 07:58:00,
2013-10-07 04:03:00,62.5,61.3,29.79,NE,49,0.0,0.0,96,0.00,,,0.08,0,HR-IXPWINDi_r2_v1.2.,2013-10-07 08:03:00,
2013-10-07 04:08:00,62.5,61.3,29.78,NE,49,0.0,0.0,96,0.00,,,0.08,0,HR-IXPWINDi_r2_v1.2.,2013-10-07 08:08:00,
2013-10-07 04:13:00,62.5,61.3,29.78,NE,49,0.0,0.0,96,0.00,,,0.08,0,HR-IXPWINDi_r2_v1.2.,2013-10-07 08:13:00,
2013-10-07 04:18:00,62.4,61.5,29.78,NE,49,0.0,0.0,97,0.00,,,0.08,0,HR-IXPWINDi_r2_v1.2.,2013-10-07 08:18:00,
2013-10-07 04:24:00,62.5,61.3,29.78,NE,49,0.0,0.0,96,0.00,,,0.08,0,HR-IXPWINDi_r2_v1.2.,2013-10-07 08:24:00,
2013-10-07 04:29:00,62.5,61.6,29.79,NE,49,0.0,0.0,97,0.00,,,0.08,0,HR-IXPWINDi_r2_v1.2.,2013-10-07 08:29:00,
2013-10-07 04:34:00,62.6,61.7,29.79,NE,49,0.0,0.0,97,0.00,,,0.08,0,HR-IXPWINDi_r2_v1.2.,2013-10-07 08:34:00,
2013-10-07 04:39:00,62.5,61.6,29.79,NE,49,0.0,0.0,97,0.00,,,0.08,0,HR-IXPWINDi_r2_v1.2.,2013-10-07 08:39:00,
2013-10-07 04:45:00,62.5,61.6,29.79,NE,49,0.0,0.0,97,0.00,,,0.09,0,HR-IXPWINDi_r2_v1.2.,2013-10-07 08:45:00,
2013-10-07 04:50:00,62.4,61.5,29.80,NE,49,0.0,0.0,97,0.00,,,0.09,0,HR-IXPWINDi_r2_v1.2.,2013-10-07 08:50:00,
2013-10-07 04:55:00,62.4,61.5,29.80,NE,49,0.0,0.0,97,0.00,,,0.09,0,HR-IXPWINDi_r2_v1.2.,2013-10-07 08:55:00,
2013-10-07 05:00:00,62.3,61.4,29.80,NE,49,0.0,0.0,97,0.00,,,0.09,0,HR-IXPWINDi_r2_v1.2.,2013-10-07 09:00:00,
2013-10-07 05:05:00,62.4,61.5,29.80,ENE,71,0.0,0.0,97,0.00,,,0.09,0,HR-IXPWINDi_r2_v1.2.,2013-10-07 09:05:00,
2013-10-07 05:10:00,62.3,61.4,29.80,ESE,103,0.0,0.0,97,0.00,,,0.10,0,HR-IXPWINDi_r2_v1.2.,2013-10-07 09:10:00,
2013-10-07 05:16:00,61.9,61.0,29.80,South,186,0.0,3.0,97,0.00,,,0.10,0,HR-IXPWINDi_r2_v1.2.,2013-10-07 09:16:00,
2013-10-07 05:21:00,61.5,60.6,29.80,SSE,157,0.0,5.0,97,0.00,,,0.10,0,HR-IXPWINDi_r2_v1.2.,2013-10-07 09:21:00,
2013-10-07 05:26:00,61.6,60.7,29.79,SSE,157,0.0,5.0,97,0.04,,,0.11,0,HR-IXPWINDi_r2_v1.2.,2013-10-07 09:26:00,
2013-10-07 05:31:00,61.5,60.6,29.80,NW,319,0.0,4.0,97,0.08,,,0.12,0,HR-IXPWINDi_r2_v1.2.,2013-10-07 09:31:00,
2013-10-07 05:36:00,61.1,60.2,29.81,SSW,203,2.0,7.0,97,0.08,,,0.12,0,HR-IXPWINDi_r2_v1.2.,2013-10-07 09:36:00,
2013-10-07 05:41:00,60.3,59.1,29.82,SSW,205,7.0,8.0,96,0.05,,,0.12,0,HR-IXPWINDi_r2_v1.2.,2013-10-07 09:41:00,
2013-10-07 05:46:00,59.8,58.6,29.82,South,188,4.0,8.0,96,0.05,,,0.13,0,HR-IXPWINDi_r2_v1.2.,2013-10-07 09:46:00,
2013-10-07 05:52:00,59.3,58.4,29.82,SSE,148,8.0,9.0,97,0.05,,,0.13,0,HR-IXPWINDi_r2_v1.2.,2013-10-07 09:52:00,
2013-10-07 05:57:00,59.1,58.2,29.81,SE,139,8.0,10.0,97,0.06,,,0.14,0,HR-IXPWINDi_r2_v1.2.,2013-10-07 09:57:00,
2013-10-07 06:02:00,59.0,58.1,29.82,SSW,200,3.0,10.0,97,0.06,,,0.14,0,HR-IXPWINDi_r2_v1.2.,2013-10-07 10:02:00,
2013-10-07 06:07:00,59.1,58.2,29.83,NNW,333,0.0,9.0,97,0.04,,,0.14,0,HR-IXPWINDi_r2_v1.2.,2013-10-07 10:07:00,
2013-10-07 06:12:00,58.8,57.9,29.84,South,178,0.0,7.0,97,0.00,,,0.14,0,HR-IXPWINDi_r2_v1.2.,2013-10-07 10:12:00,
2013-10-07 06:18:00,58.4,57.5,29.84,South,191,4.0,8.0,97,0.00,,,0.15,0,HR-IXPWINDi_r2_v1.2.,2013-10-07 10:18:00,
2013-10-07 06:23:00,58.2,57.3,29.84,SSW,196,3.0,9.0,97,0.00,,,0.15,0,HR-IXPWINDi_r2_v1.2.,2013-10-07 10:23:00,
2013-10-07 06:28:00,57.7,56.8,29.83,SSW,202,4.0,9.0,97,0.00,,,0.15,0,HR-IXPWINDi_r2_v1.2.,2013-10-07 10:28:00,
2013-10-07 06:33:00,57.5,56.6,29.83,SSE,150,5.0,8.0,97,0.04,,,0.16,0,HR-IXPWINDi_r2_v1.2.,2013-10-07 10:33:00,
2013-10-07 06:38:00,57.4,56.5,29.83,SSE,165,0.0,8.0,97,0.04,,,0.16,0,HR-IXPWINDi_r2_v1.2.,2013-10-07 10:38:00,
2013-10-07 06:44:00,57.4,56.5,29.83,SSE,165,0.0,6.0,97,0.04,,,0.16,0,HR-IXPWINDi_r2_v1.2.,2013-10-07 10:44:00,
2013-10-07 06:49:00,57.6,56.7,29.84,SSE,165,0.0,2.0,97,0.00,,,0.16,0,HR-IXPWINDi_r2_v1.2.,2013-10-07 10:49:00,
2013-10-07 06:54:00,57.6,56.7,29.84,SSE,165,0.0,1.0,97,0.00,,,0.16,0,HR-IXPWINDi_r2_v1.2.,2013-10-07 10:54:00,
2013-10-07 06:59:00,57.3,56.4,29.84,SSE,155,2.0,4.0,97,0.00,,,0.16,0,HR-IXPWINDi_r2_v1.2.,2013-10-07 10:59:00,
2013-10-07 07:05:00,57.1,56.2,29.84,South,188,4.0,6.0,97,0.00,,,0.17,0,HR-IXPWINDi_r2_v1.2.,2013-10-07 11:05:00,
2013-10-07 07:10:00,56.8,55.9,29.83,South,188,0.0,6.0,97,0.00,,,0.17,0,HR-IXPWINDi_r2_v1.2.,2013-10-07 11:10:00,
2013-10-07 07:15:00,56.8,55.9,29.82,SSE,149,0.0,6.0,97,0.00,,,0.17,0,HR-IXPWINDi_r2_v1.2.,2013-10-07 11:15:00,
2013-10-07 07:20:00,56.7,55.8,29.84,SSW,197,1.0,6.0,97,0.00,,,0.17,0,HR-IXPWINDi_r2_v1.2.,2013-10-07 11:20:00,
2013-10-07 07:25:00,56.6,55.7,29.85,SW,215,1.0,6.0,97,0.00,,,0.17,0,HR-IXPWINDi_r2_v1.2.,2013-10-07 11:25:00,
2013-10-07 07:31:00,56.1,54.9,29.83,South,179,6.0,8.0,96,0.00,,,0.17,0,HR-IXPWINDi_r2_v1.2.,2013-10-07 11:31:00,
2013-10-07 07:36:00,55.7,54.5,29.85,South,187,7.0,10.0,96,0.00,,,0.18,0,HR-IXPWINDi_r2_v1.2.,2013-10-07 11:36:00,
2013-10-07 07:41:00,55.6,54.4,29.85,SSW,194,9.0,12.0,96,0.00,,,0.18,0,HR-IXPWINDi_r2_v1.2.,2013-10-07 11:41:00,
2013-10-07 07:47:00,55.7,54.8,29.87,SSW,209,2.0,10.0,97,0.00,,,0.18,0,HR-IXPWINDi_r2_v1.2.,2013-10-07 11:47:00,
2013-10-07 07:52:00,55.7,54.8,29.87,SSE,149,2.0,10.0,97,0.00,,,0.18,12,HR-IXPWINDi_r2_v1.2.,2013-10-07 11:52:00,
2013-10-07 07:57:00,55.8,54.9,29.87,South,176,4.0,10.0,97,0.00,,,0.18,11,HR-IXPWINDi_r2_v1.2.,2013-10-07 11:57:00,
2013-10-07 08:02:00,55.5,54.6,29.87,South,185,2.0,6.0,97,0.00,,,0.18,16,HR-IXPWINDi_r2_v1.2.,2013-10-07 12:02:00,
2013-10-07 08:08:00,55.5,54.3,29.87,SSW,200,0.0,7.0,96,0.00,,,0.19,14,HR-IXPWINDi_r2_v1.2.,2013-10-07 12:08:00,
2013-10-07 08:13:00,55.3,54.1,29.87,SSW,200,2.0,7.0,96,0.00,,,0.19,19,HR-IXPWINDi_r2_v1.2.,2013-10-07 12:13:00,
2013-10-07 08:18:00,55.4,54.2,29.86,SSW,200,1.0,5.0,96,0.00,,,0.19,21,HR-IXPWINDi_r2_v1.2.,2013-10-07 12:18:00,
2013-10-07 08:23:00,55.3,54.1,29.87,SSW,192,2.0,5.0,96,0.00,,,0.19,25,HR-IXPWINDi_r2_v1.2.,2013-10-07 12:23:00,
2013-10-07 08:28:00,55.5,54.6,29.87,SSW,192,0.0,5.0,97,0.00,,,0.19,35,HR-IXPWINDi_r2_v1.2.,2013-10-07 12:28:00,
2013-10-07 08:33:00,55.6,54.7,29.86,SSW,192,0.0,3.0,97,0.00,,,0.19,39,HR-IXPWINDi_r2_v1.2.,2013-10-07 12:33:00,
2013-10-07 08:38:00,55.8,54.9,29.87,SSW,192,0.0,1.0,97,0.00,,,0.19,37,HR-IXPWINDi_r2_v1.2.,2013-10-07 12:38:00,
2013-10-07 08:43:00,55.7,54.5,29.87,SSW,192,0.0,0.0,96,0.00,,,0.19,44,HR-IXPWINDi_r2_v1.2.,2013-10-07 12:43:00,
2013-10-07 08:49:00,55.9,54.7,29.87,SSW,192,0.0,1.0,96,0.00,,,0.19,46,HR-IXPWINDi_r2_v1.2.,2013-10-07 12:49:00,
2013-10-07 08:54:00,55.9,54.7,29.87,SSW,192,0.0,1.0,96,0.00,,,0.20,47,HR-IXPWINDi_r2_v1.2.,2013-10-07 12:54:00,
2013-10-07 08:59:00,56.1,54.9,29.88,SSW,192,0.0,0.0,96,0.00,,,0.20,49,HR-IXPWINDi_r2_v1.2.,2013-10-07 12:59:00,
2013-10-07 09:04:00,56.3,55.1,29.87,SSW,192,0.0,1.0,96,0.00,,,0.20,46,HR-IXPWINDi_r2_v1.2.,2013-10-07 13:04:00,
2013-10-07 09:09:00,56.2,55.0,29.87,SSW,192,0.0,1.0,96,0.00,,,0.20,54,HR-IXPWINDi_r2_v1.2.,2013-10-07 13:09:00,
2013-10-07 09:14:00,56.6,55.4,29.87,SSW,192,0.0,1.0,96,0.00,,,0.20,63,HR-IXPWINDi_r2_v1.2.,2013-10-07 13:14:00,
2013-10-07 09:19:00,56.6,55.4,29.87,SSW,192,0.0,0.0,96,0.00,,,0.20,74,HR-IXPWINDi_r2_v1.2.,2013-10-07 13:19:00,
2013-10-07 09:24:00,56.5,55.3,29.87,SSW,192,0.0,2.0,96,0.00,,,0.20,104,HR-IXPWINDi_r2_v1.2.,2013-10-07 13:24:00,
2013-10-07 09:30:00,56.6,55.4,29.88,SSW,192,0.0,4.0,96,0.00,,,0.20,118,HR-IXPWINDi_r2_v1.2.,2013-10-07 13:30:00,
2013-10-07 09:35:00,56.9,55.7,29.88,SSW,192,2.0,4.0,96,0.00,,,0.20,206,HR-IXPWINDi_r2_v1.2.,2013-10-07 13:35:00,
2013-10-07 09:40:00,57.0,55.8,29.88,SSW,199,3.0,6.0,96,0.00,,,0.20,188,HR-IXPWINDi_r2_v1.2.,2013-10-07 13:40:00,
2013-10-07 09:45:00,57.1,55.9,29.88,SSW,199,1.0,6.0,96,0.00,,,0.20,107,HR-IXPWINDi_r2_v1.2.,2013-10-07 13:45:00,
2013-10-07 09:50:00,57.0,55.5,29.88,SSW,199,4.0,5.0,95,0.00,,,0.20,98,HR-IXPWINDi_r2_v1.2.,2013-10-07 13:50:00,
2013-10-07 09:55:00,57.1,55.6,29.89,SSW,200,4.0,6.0,95,0.00,,,0.20,49,HR-IXPWINDi_r2_v1.2.,2013-10-07 13:55:00,
2013-10-07 10:00:00,57.1,55.6,29.89,SSW,202,3.0,6.0,95,0.00,,,0.20,98,HR-IXPWINDi_r2_v1.2.,2013-10-07 14:00:00,
2013-10-07 10:06:00,57.0,55.5,29.89,SSW,202,0.0,5.0,95,0.00,,,0.20,102,HR-IXPWINDi_r2_v1.2.,2013-10-07 14:06:00,
2013-10-07 10:11:00,56.8,55.3,29.89,South,188,2.0,5.0,95,0.00,,,0.20,128,HR-IXPWINDi_r2_v1.2.,2013-10-07 14:11:00,
2013-10-07 10:16:00,56.9,55.4,29.89,South,190,0.0,6.0,95,0.00,,,0.20,91,HR-IXPWINDi_r2_v1.2.,2013-10-07 14:16:00,
2013-10-07 10:21:00,57.0,55.5,29.89,South,186,4.0,7.0,95,0.00,,,0.20,130,HR-IXPWINDi_r2_v1.2.,2013-10-07 14:21:00,
2013-10-07 10:26:00,57.0,55.5,29.89,South,191,0.0,7.0,95,0.00,,,0.21,134,HR-IXPWINDi_r2_v1.2.,2013-10-07 14:26:00,
2013-10-07 10:31:00,57.0,55.2,29.89,South,191,0.0,5.0,94,0.00,,,0.21,134,HR-IXPWINDi_r2_v1.2.,2013-10-07 14:31:00,
2013-10-07 10:36:00,57.1,55.3,29.89,SSW,195,2.0,7.0,94,0.00,,,0.21,172,HR-IXPWINDi_r2_v1.2.,2013-10-07 14:36:00,
2013-10-07 10:41:00,57.3,55.5,29.89,SSW,192,2.0,7.0,94,0.00,,,0.21,241,HR-IXPWINDi_r2_v1.2.,2013-10-07 14:41:00,
2013-10-07 10:46:00,57.7,55.9,29.89,South,188,4.0,7.0,94,0.00,,,0.21,237,HR-IXPWINDi_r2_v1.2.,2013-10-07 14:46:00,
2013-10-07 10:52:00,57.9,56.1,29.89,South,169,5.0,9.0,94,0.00,,,0.21,250,HR-IXPWINDi_r2_v1.2.,2013-10-07 14:52:00,
2013-10-07 10:57:00,58.6,56.8,29.90,SSW,192,3.0,9.0,94,0.00,,,0.21,220,HR-IXPWINDi_r2_v1.2.,2013-10-07 14:57:00,
2013-10-07 11:02:00,58.9,57.1,29.90,SSW,210,4.0,9.0,94,0.00,,,0.21,202,HR-IXPWINDi_r2_v1.2.,2013-10-07 15:02:00,
2013-10-07 11:07:00,59.2,57.1,29.90,South,174,0.0,7.0,93,0.00,,,0.22,171,HR-IXPWINDi_r2_v1.2.,2013-10-07 15:07:00,
2013-10-07 11:12:00,59.0,56.6,29.90,West,270,0.0,6.0,92,0.00,,,0.22,148,HR-IXPWINDi_r2_v1.2.,2013-10-07 15:12:00,
2013-10-07 11:17:00,58.3,55.6,29.91,SW,224,3.0,9.0,91,0.00,,,0.22,84,HR-IXPWINDi_r2_v1.2.,2013-10-07 15:17:00,
2013-10-07 11:22:00,58.2,55.8,29.91,SW,233,0.0,9.0,92,0.00,,,0.22,79,HR-IXPWINDi_r2_v1.2.,2013-10-07 15:22:00,
2013-10-07 11:28:00,57.9,55.2,29.92,SW,219,2.0,4.0,91,0.00,,,0.22,98,HR-IXPWINDi_r2_v1.2.,2013-10-07 15:28:00,
2013-10-07 11:33:00,57.3,54.3,29.92,SW,214,6.0,7.0,90,0.00,,,0.22,102,HR-IXPWINDi_r2_v1.2.,2013-10-07 15:33:00,
2013-10-07 11:38:00,56.7,53.7,29.92,South,188,2.0,7.0,90,0.00,,,0.22,102,HR-IXPWINDi_r2_v1.2.,2013-10-07 15:38:00,
2013-10-07 11:43:00,56.3,53.3,29.92,SW,236,0.0,9.0,90,0.00,,,0.22,116,HR-IXPWINDi_r2_v1.2.,2013-10-07 15:43:00,
2013-10-07 11:48:00,56.3,53.6,29.92,South,182,4.0,9.0,91,0.00,,,0.22,123,HR-IXPWINDi_r2_v1.2.,2013-10-07 15:48:00,
2013-10-07 11:54:00,56.2,53.2,29.93,South,188,4.0,8.0,90,0.00,,,0.22,111,HR-IXPWINDi_r2_v1.2.,2013-10-07 15:54:00,
2013-10-07 11:59:00,56.3,53.3,29.93,South,190,0.0,6.0,90,0.00,,,0.22,123,HR-IXPWINDi_r2_v1.2.,2013-10-07 15:59:00,
2013-10-07 12:04:00,56.4,53.4,29.92,South,190,6.0,6.0,90,0.00,,,0.22,141,HR-IXPWINDi_r2_v1.2.,2013-10-07 16:04:00,
2013-10-07 12:09:00,56.4,53.1,29.92,South,169,7.0,10.0,89,0.00,,,0.22,174,HR-IXPWINDi_r2_v1.2.,2013-10-07 16:09:00,
2013-10-07 12:14:00,57.1,54.1,29.92,South,189,0.0,10.0,90,0.00,,,0.22,206,HR-IXPWINDi_r2_v1.2.,2013-10-07 16:14:00,
2013-10-07 12:20:00,57.1,53.5,29.92,South,184,5.0,10.0,88,0.00,,,0.22,207,HR-IXPWINDi_r2_v1.2.,2013-10-07 16:20:00,
2013-10-07 12:25:00,57.4,53.8,29.92,SSE,155,2.0,9.0,88,0.00,,,0.22,204,HR-IXPWINDi_r2_v1.2.,2013-10-07 16:25:00,
2013-10-07 12:30:00,58.1,53.9,29.93,East,98,0.0,6.0,86,0.00,,,0.23,209,HR-IXPWINDi_r2_v1.2.,2013-10-07 16:30:00,
2013-10-07 12:35:00,58.2,53.6,29.92,NW,313,2.0,7.0,85,0.00,,,0.23,237,HR-IXPWINDi_r2_v1.2.,2013-10-07 16:35:00,
2013-10-07 12:40:00,58.3,54.1,29.92,SSW,196,1.0,7.0,86,0.00,,,0.23,232,HR-IXPWINDi_r2_v1.2.,2013-10-07 16:40:00,
2013-10-07 12:46:00,59.1,54.5,29.93,NNW,342,0.0,6.0,85,0.00,,,0.23,218,HR-IXPWINDi_r2_v1.2.,2013-10-07 16:46:00,
2013-10-07 12:51:00,59.3,54.7,29.93,WNW,296,0.0,5.0,85,0.00,,,0.23,258,HR-IXPWINDi_r2_v1.2.,2013-10-07 16:51:00,
2013-10-07 12:56:00,59.2,54.6,29.92,NNW,334,2.0,6.0,85,0.00,,,0.23,250,HR-IXPWINDi_r2_v1.2.,2013-10-07 16:56:00,
2013-10-07 13:02:00,59.5,54.6,29.92,SSW,211,3.0,6.0,84,0.00,,,0.24,213,HR-IXPWINDi_r2_v1.2.,2013-10-07 17:02:00,
2013-10-07 13:07:00,59.1,54.2,29.92,SSW,202,4.0,8.0,84,0.00,,,0.24,236,HR-IXPWINDi_r2_v1.2.,2013-10-07 17:07:00,
2013-10-07 13:12:00,59.1,54.5,29.92,South,184,6.0,8.0,85,0.00,,,0.24,283,HR-IXPWINDi_r2_v1.2.,2013-10-07 17:12:00,
2013-10-07 13:17:00,59.7,55.1,29.92,SSW,213,5.0,8.0,85,0.00,,,0.24,338,HR-IXPWINDi_r2_v1.2.,2013-10-07 17:17:00,
2013-10-07 13:22:00,60.4,55.5,29.92,NNW,341,1.0,8.0,84,0.00,,,0.24,290,HR-IXPWINDi_r2_v1.2.,2013-10-07 17:22:00,
2013-10-07 13:27:00,60.6,55.0,29.92,South,183,4.0,10.0,82,0.00,,,0.24,313,HR-IXPWINDi_r2_v1.2.,2013-10-07 17:27:00,
2013-10-07 13:32:00,61.1,55.8,29.91,WNW,303,0.0,10.0,83,0.00,,,0.24,250,HR-IXPWINDi_r2_v1.2.,2013-10-07 17:32:00,
2013-10-07 13:37:00,60.8,55.2,29.91,SSW,199,4.0,10.0,82,0.00,,,0.25,640,HR-IXPWINDi_r2_v1.2.,2013-10-07 17:37:00,
2013-10-07 13:42:00,60.7,55.4,29.91,SW,217,2.0,7.0,83,0.00,,,0.25,316,HR-IXPWINDi_r2_v1.2.,2013-10-07 17:42:00,
2013-10-07 13:48:00,60.7,55.1,29.91,South,188,0.0,7.0,82,0.00,,,0.25,425,HR-IXPWINDi_r2_v1.2.,2013-10-07 17:48:00,
2013-10-07 13:53:00,60.6,54.0,29.91,North,360,0.0,7.0,79,0.00,,,0.25,336,HR-IXPWINDi_r2_v1.2.,2013-10-07 17:53:00,
2013-10-07 13:58:00,61.1,54.5,29.91,South,178,0.0,5.0,79,0.00,,,0.25,383,HR-IXPWINDi_r2_v1.2.,2013-10-07 17:58:00,
2013-10-07 14:03:00,60.9,54.3,29.91,SSW,201,5.0,5.0,79,0.00,,,0.26,522,HR-IXPWINDi_r2_v1.2.,2013-10-07 18:03:00,
2013-10-07 14:08:00,61.2,54.6,29.91,North,360,4.0,9.0,79,0.00,,,0.26,519,HR-IXPWINDi_r2_v1.2.,2013-10-07 18:08:00,
2013-10-07 14:13:00,61.0,54.4,29.91,South,183,4.0,9.0,79,0.00,,,0.26,311,HR-IXPWINDi_r2_v1.2.,2013-10-07 18:13:00,
2013-10-07 14:18:00,60.5,54.2,29.92,SSW,197,0.0,10.0,80,0.00,,,0.26,285,HR-IXPWINDi_r2_v1.2.,2013-10-07 18:18:00,
2013-10-07 14:24:00,60.5,53.9,29.92,SSW,205,1.0,10.0,79,0.00,,,0.26,285,HR-IXPWINDi_r2_v1.2.,2013-10-07 18:24:00,
2013-10-07 14:29:00,60.6,54.0,29.91,NW,323,1.0,10.0,79,0.00,,,0.26,306,HR-IXPWINDi_r2_v1.2.,2013-10-07 18:29:00,
2013-10-07 14:34:00,61.3,54.3,29.92,NNE,20,0.0,6.0,78,0.00,,,0.26,269,HR-IXPWINDi_r2_v1.2.,2013-10-07 18:34:00,
2013-10-07 14:39:00,61.1,54.5,29.92,SSW,209,2.0,6.0,79,0.00,,,0.26,322,HR-IXPWINDi_r2_v1.2.,2013-10-07 18:39:00,
2013-10-07 14:44:00,60.4,53.8,29.92,SW,215,2.0,7.0,79,0.00,,,0.26,255,HR-IXPWINDi_r2_v1.2.,2013-10-07 18:44:00,
2013-10-07 14:49:00,60.3,53.3,29.92,SSW,208,0.0,7.0,78,0.00,,,0.26,246,HR-IXPWINDi_r2_v1.2.,2013-10-07 18:49:00,
2013-10-07 14:54:00,60.4,53.1,29.92,South,170,0.0,6.0,77,0.00,,,0.26,243,HR-IXPWINDi_r2_v1.2.,2013-10-07 18:54:00,
2013-10-07 15:00:00,60.6,53.3,29.91,SSW,195,0.0,6.0,77,0.00,,,0.26,246,HR-IXPWINDi_r2_v1.2.,2013-10-07 19:00:00,
2013-10-07 15:05:00,60.6,53.3,29.91,North,355,0.0,4.0,77,0.00,,,0.27,250,HR-IXPWINDi_r2_v1.2.,2013-10-07 19:05:00,
2013-10-07 15:10:00,60.9,52.9,29.92,SSE,166,1.0,5.0,75,0.00,,,0.27,290,HR-IXPWINDi_r2_v1.2.,2013-10-07 19:10:00,
2013-10-07 15:15:00,60.4,53.1,29.92,South,175,4.0,6.0,77,0.00,,,0.27,209,HR-IXPWINDi_r2_v1.2.,2013-10-07 19:15:00,
2013-10-07 15:20:00,60.3,53.7,29.91,ESE,123,1.0,8.0,79,0.00,,,0.27,232,HR-IXPWINDi_r2_v1.2.,2013-10-07 19:20:00,
2013-10-07 15:25:00,60.7,53.4,29.92,WSW,248,0.0,8.0,77,0.00,,,0.27,225,HR-IXPWINDi_r2_v1.2.,2013-10-07 19:25:00,
2013-10-07 15:31:00,60.8,53.1,29.92,North,355,0.0,5.0,76,0.00,,,0.27,318,HR-IXPWINDi_r2_v1.2.,2013-10-07 19:31:00,
2013-10-07 15:36:00,61.6,53.9,29.92,North,360,1.0,4.0,76,0.00,,,0.27,229,HR-IXPWINDi_r2_v1.2.,2013-10-07 19:36:00,
2013-10-07 15:41:00,61.8,54.1,29.92,NNW,341,0.0,4.0,76,0.00,,,0.27,237,HR-IXPWINDi_r2_v1.2.,2013-10-07 19:41:00,
2013-10-07 15:46:00,61.7,54.0,29.92,SSW,207,2.0,4.0,76,0.00,,,0.27,577,HR-IXPWINDi_r2_v1.2.,2013-10-07 19:46:00,
2013-10-07 15:51:00,61.6,53.5,29.92,SSW,200,6.0,7.0,75,0.00,,,0.27,462,HR-IXPWINDi_r2_v1.2.,2013-10-07 19:51:00,
2013-10-07 15:56:00,61.6,53.9,29.92,North,355,5.0,9.0,76,0.00,,,0.27,589,HR-IXPWINDi_r2_v1.2.,2013-10-07 19:56:00,
2013-10-07 16:01:00,62.0,53.9,29.92,SW,221,0.0,9.0,75,0.00,,,0.28,512,HR-IXPWINDi_r2_v1.2.,2013-10-07 20:01:00,
2013-10-07 16:07:00,62.3,54.2,29.92,North,9,1.0,9.0,75,0.00,,,0.28,513,HR-IXPWINDi_r2_v1.2.,2013-10-07 20:07:00,
2013-10-07 16:12:00,62.8,54.7,29.92,SSW,199,0.0,8.0,75,0.00,,,0.28,485,HR-IXPWINDi_r2_v1.2.,2013-10-07 20:12:00,
2013-10-07 16:17:00,63.4,54.9,29.92,NNW,344,6.0,8.0,74,0.00,,,0.28,497,HR-IXPWINDi_r2_v1.2.,2013-10-07 20:17:00,
2013-10-07 16:22:00,63.0,54.1,29.92,NNW,337,1.0,14.0,73,0.00,,,0.28,499,HR-IXPWINDi_r2_v1.2.,2013-10-07 20:22:00,
2013-10-07 16:28:00,63.5,54.3,29.92,NNW,335,0.0,14.0,72,0.00,,,0.28,473,HR-IXPWINDi_r2_v1.2.,2013-10-07 20:28:00,
2013-10-07 16:33:00,62.9,53.7,29.92,NNW,339,0.0,7.0,72,0.00,,,0.28,461,HR-IXPWINDi_r2_v1.2.,2013-10-07 20:33:00,
2013-10-07 16:38:00,63.2,54.3,29.92,NNW,346,3.0,7.0,73,0.00,,,0.28,429,HR-IXPWINDi_r2_v1.2.,2013-10-07 20:38:00,
2013-10-07 16:43:00,63.5,54.6,29.92,North,355,4.0,7.0,73,0.00,,,0.28,415,HR-IXPWINDi_r2_v1.2.,2013-10-07 20:43:00,
2013-10-07 16:48:00,64.0,54.3,29.92,North,9,1.0,8.0,71,0.00,,,0.28,404,HR-IXPWINDi_r2_v1.2.,2013-10-07 20:48:00,
2013-10-07 16:53:00,63.8,53.0,29.91,NW,325,1.0,7.0,68,0.00,,,0.28,374,HR-IXPWINDi_r2_v1.2.,2013-10-07 20:53:00,
2013-10-07 16:59:00,63.9,53.9,29.92,North,349,6.0,10.0,70,0.00,,,0.28,353,HR-IXPWINDi_r2_v1.2.,2013-10-07 20:59:00,
2013-10-07 17:04:00,64.1,54.1,29.91,NW,309,3.0,10.0,70,0.00,,,0.28,332,HR-IXPWINDi_r2_v1.2.,2013-10-07 21:04:00,
2013-10-07 17:09:00,63.3,52.9,29.91,North,350,3.0,13.0,69,0.00,,,0.28,304,HR-IXPWINDi_r2_v1.2.,2013-10-07 21:09:00,
2013-10-07 17:15:00,63.1,53.1,29.91,NW,316,8.0,13.0,70,0.00,,,0.28,37,HR-IXPWINDi_r2_v1.2.,2013-10-07 21:15:00,
2013-10-07 17:20:00,62.9,53.3,29.91,NNW,340,2.0,8.0,71,0.00,,,0.28,39,HR-IXPWINDi_r2_v1.2.,2013-10-07 21:20:00,
2013-10-07 17:25:00,62.7,53.5,29.91,North,351,3.0,8.0,72,0.00,,,0.29,40,HR-IXPWINDi_r2_v1.2.,2013-10-07 21:25:00,
2013-10-07 17:30:00,62.7,53.1,29.92,North,350,1.0,8.0,71,0.00,,,0.29,100,HR-IXPWINDi_r2_v1.2.,2013-10-07 21:30:00,
2013-10-07 17:35:00,62.9,54.1,29.92,North,10,3.0,8.0,73,0.00,,,0.29,58,HR-IXPWINDi_r2_v1.2.,2013-10-07 21:35:00,
2013-10-07 17:40:00,62.4,52.8,29.92,North,355,4.0,6.0,71,0.00,,,0.29,58,HR-IXPWINDi_r2_v1.2.,2013-10-07 21:40:00,
2013-10-07 17:45:00,62.3,52.7,29.92,NW,323,0.0,6.0,71,0.00,,,0.29,49,HR-IXPWINDi_r2_v1.2.,2013-10-07 21:45:00,
2013-10-07 17:50:00,62.3,53.1,29.93,South,177,0.0,7.0,72,0.00,,,0.29,69,HR-IXPWINDi_r2_v1.2.,2013-10-07 21:50:00,
2013-10-07 17:55:00,62.2,53.0,29.93,NNW,348,0.0,7.0,72,0.00,,,0.29,47,HR-IXPWINDi_r2_v1.2.,2013-10-07 21:55:00,
2013-10-07 18:01:00,61.9,52.7,29.93,NNW,342,0.0,5.0,72,0.00,,,0.29,44,HR-IXPWINDi_r2_v1.2.,2013-10-07 22:01:00,
2013-10-07 18:06:00,61.9,53.1,29.93,ENE,61,0.0,4.0,73,0.00,,,0.29,37,HR-IXPWINDi_r2_v1.2.,2013-10-07 22:06:00,
2013-10-07 18:11:00,61.5,52.7,29.93,South,184,2.0,5.0,73,0.00,,,0.29,35,HR-IXPWINDi_r2_v1.2.,2013-10-07 22:11:00,
2013-10-07 18:16:00,61.0,53.3,29.94,SSE,151,0.0,5.0,76,0.00,,,0.29,33,HR-IXPWINDi_r2_v1.2.,2013-10-07 22:16:00,
2013-10-07 18:22:00,60.7,52.7,29.94,North,9,0.0,5.0,75,0.00,,,0.29,28,HR-IXPWINDi_r2_v1.2.,2013-10-07 22:22:00,
2013-10-07 18:27:00,60.7,52.3,29.94,SSE,168,0.0,6.0,74,0.00,,,0.29,26,HR-IXPWINDi_r2_v1.2.,2013-10-07 22:27:00,
2013-10-07 18:32:00,60.4,52.0,29.94,North,355,0.0,6.0,74,0.00,,,0.29,23,HR-IXPWINDi_r2_v1.2.,2013-10-07 22:32:00,
2013-10-07 18:37:00,60.0,52.4,29.95,NNW,334,0.0,5.0,76,0.00,,,0.29,19,HR-IXPWINDi_r2_v1.2.,2013-10-07 22:37:00,
2013-10-07 18:42:00,59.7,52.1,29.95,North,351,0.0,3.0,76,0.00,,,0.29,16,HR-IXPWINDi_r2_v1.2.,2013-10-07 22:42:00,
2013-10-07 18:47:00,59.5,52.2,29.95,NNW,348,0.0,3.0,77,0.00,,,0.29,12,HR-IXPWINDi_r2_v1.2.,2013-10-07 22:47:00,
2013-10-07 18:53:00,59.3,52.0,29.95,NNW,330,5.0,6.0,77,0.00,,,0.29,12,HR-IXPWINDi_r2_v1.2.,2013-10-07 22:53:00,
2013-10-07 18:58:00,59.0,52.1,29.95,NNW,337,3.0,7.0,78,0.00,,,0.29,9,HR-IXPWINDi_r2_v1.2.,2013-10-07 22:58:00,
2013-10-07 19:03:00,58.6,51.7,29.95,SW,229,3.0,7.0,78,0.00,,,0.29,5,HR-IXPWINDi_r2_v1.2.,2013-10-07 23:03:00,
2013-10-07 19:08:00,58.1,51.9,29.96,SW,221,1.0,6.0,80,0.00,,,0.29,0,HR-IXPWINDi_r2_v1.2.,2013-10-07 23:08:00,
2013-10-07 19:13:00,57.8,51.6,29.97,SW,221,0.0,6.0,80,0.00,,,0.29,0,HR-IXPWINDi_r2_v1.2.,2013-10-07 23:13:00,
2013-10-07 19:18:00,57.6,51.7,29.96,SW,225,0.0,3.0,81,0.00,,,0.29,0,HR-IXPWINDi_r2_v1.2.,2013-10-07 23:18:00,
2013-10-07 19:23:00,57.2,51.7,29.97,SW,225,0.0,2.0,82,0.00,,,0.29,0,HR-IXPWINDi_r2_v1.2.,2013-10-07 23:23:00,
2013-10-07 19:28:00,56.9,51.7,29.97,SW,225,0.0,1.0,83,0.00,,,0.29,0,HR-IXPWINDi_r2_v1.2.,2013-10-07 23:28:00,
2013-10-07 19:34:00,56.4,51.6,29.97,SW,225,0.0,2.0,84,0.00,,,0.29,0,HR-IXPWINDi_r2_v1.2.,2013-10-07 23:34:00,
2013-10-07 19:39:00,56.1,51.6,29.97,WSW,242,0.0,3.0,85,0.00,,,0.29,0,HR-IXPWINDi_r2_v1.2.,2013-10-07 23:39:00,
2013-10-07 19:44:00,55.8,51.6,29.98,WSW,242,0.0,3.0,86,0.00,,,0.30,0,HR-IXPWINDi_r2_v1.2.,2013-10-07 23:44:00,
2013-10-07 19:49:00,55.3,51.4,29.98,WSW,242,0.0,0.0,87,0.00,,,0.30,0,HR-IXPWINDi_r2_v1.2.,2013-10-07 23:49:00,
2013-10-07 19:54:00,54.7,51.2,29.98,WSW,242,0.0,0.0,88,0.00,,,0.30,0,HR-IXPWINDi_r2_v1.2.,2013-10-07 23:54:00,
2013-10-07 20:00:00,54.2,51.0,29.98,WSW,242,0.0,0.0,89,0.00,,,0.30,0,HR-IXPWINDi_r2_v1.2.,2013-10-08 00:00:00,
2013-10-07 20:05:00,53.9,51.0,29.98,WSW,242,0.0,0.0,90,0.00,,,0.30,0,HR-IXPWINDi_r2_v1.2.,2013-10-08 00:05:00,
2013-10-07 20:10:00,54.0,51.1,29.98,West,267,0.0,0.0,90,0.00,,,0.30,0,HR-IXPWINDi_r2_v1.2.,2013-10-08 00:10:00,
2013-10-07 20:15:00,53.5,50.6,29.99,West,267,0.0,2.0,90,0.00,,,0.30,0,HR-IXPWINDi_r2_v1.2.,2013-10-08 00:15:00,
2013-10-07 20:20:00,53.1,50.5,29.99,West,267,0.0,2.0,91,0.00,,,0.30,0,HR-IXPWINDi_r2_v1.2.,2013-10-08 00:20:00,
2013-10-07 20:26:00,53.0,50.7,30.00,West,267,0.0,1.0,92,0.00,,,0.30,0,HR-IXPWINDi_r2_v1.2.,2013-10-08 00:26:00,
2013-10-07 20:31:00,52.9,50.6,30.00,West,267,0.0,0.0,92,0.00,,,0.30,0,HR-IXPWINDi_r2_v1.2.,2013-10-08 00:31:00,
2013-10-07 20:36:00,52.8,50.5,30.00,West,267,0.0,0.0,92,0.00,,,0.30,0,HR-IXPWINDi_r2_v1.2.,2013-10-08 00:36:00,
2013-10-07 20:41:00,52.8,50.5,30.01,West,267,0.0,0.0,92,0.00,,,0.30,0,HR-IXPWINDi_r2_v1.2.,2013-10-08 00:41:00,
2013-10-07 20:46:00,52.7,50.7,30.01,West,267,0.0,1.0,93,0.00,,,0.30,0,HR-IXPWINDi_r2_v1.2.,2013-10-08 00:46:00,
2013-10-07 20:52:00,52.5,50.5,30.01,West,267,0.0,1.0,93,0.00,,,0.30,0,HR-IXPWINDi_r2_v1.2.,2013-10-08 00:52:00,
2013-10-07 20:57:00,52.4,50.4,30.01,West,267,0.0,1.0,93,0.00,,,0.30,0,HR-IXPWINDi_r2_v1.2.,2013-10-08 00:57:00,
2013-10-07 21:02:00,52.4,50.4,30.02,West,267,0.0,1.0,93,0.00,,,0.30,0,HR-IXPWINDi_r2_v1.2.,2013-10-08 01:02:00,
2013-10-07 21:07:00,52.0,50.0,30.01,West,267,0.0,0.0,93,0.00,,,0.30,0,HR-IXPWINDi_r2_v1.2.,2013-10-08 01:07:00,
2013-10-07 21:12:00,52.0,50.0,30.01,West,267,0.0,0.0,93,0.00,,,0.30,0,HR-IXPWINDi_r2_v1.2.,2013-10-08 01:12:00,
2013-10-07 21:17:00,51.8,49.8,30.02,West,267,0.0,1.0,93,0.00,,,0.30,0,HR-IXPWINDi_r2_v1.2.,2013-10-08 01:17:00,
2013-10-07 21:23:00,51.6,49.9,30.02,West,267,0.0,1.0,94,0.00,,,0.30,0,HR-IXPWINDi_r2_v1.2.,2013-10-08 01:23:00,
2013-10-07 21:28:00,51.6,49.9,30.02,West,267,0.0,0.0,94,0.00,,,0.30,0,HR-IXPWINDi_r2_v1.2.,2013-10-08 01:28:00,
2013-10-07 21:33:00,51.6,49.9,30.02,West,267,0.0,0.0,94,0.00,,,0.30,0,HR-IXPWINDi_r2_v1.2.,2013-10-08 01:33:00,
2013-10-07 21:38:00,51.8,50.1,30.03,West,267,0.0,0.0,94,0.00,,,0.30,0,HR-IXPWINDi_r2_v1.2.,2013-10-08 01:38:00,
2013-10-07 21:43:00,51.5,49.8,30.03,West,267,0.0,0.0,94,0.00,,,0.30,0,HR-IXPWINDi_r2_v1.2.,2013-10-08 01:43:00,
2013-10-07 21:48:00,51.4,49.7,30.03,West,267,0.0,0.0,94,0.00,,,0.30,0,HR-IXPWINDi_r2_v1.2.,2013-10-08 01:48:00,
2013-10-07 21:53:00,51.2,49.5,30.03,West,267,0.0,0.0,94,0.00,,,0.30,0,HR-IXPWINDi_r2_v1.2.,2013-10-08 01:53:00,
2013-10-07 21:59:00,51.1,49.4,30.03,West,267,0.0,0.0,94,0.00,,,0.30,0,HR-IXPWINDi_r2_v1.2.,2013-10-08 01:59:00,
2013-10-07 22:04:00,51.2,49.5,30.03,West,267,0.0,0.0,94,0.00,,,0.30,0,HR-IXPWINDi_r2_v1.2.,2013-10-08 02:04:00,
2013-10-07 22:09:00,50.8,48.8,30.04,West,267,0.0,0.0,93,0.00,,,0.30,0,HR-IXPWINDi_r2_v1.2.,2013-10-08 02:09:00,
2013-10-07 22:14:00,50.5,48.5,30.04,West,267,0.0,0.0,93,0.00,,,0.30,0,HR-IXPWINDi_r2_v1.2.,2013-10-08 02:14:00,
2013-10-07 22:20:00,50.4,48.7,30.04,West,267,0.0,0.0,94,0.00,,,0.30,0,HR-IXPWINDi_r2_v1.2.,2013-10-08 02:20:00,
2013-10-07 22:25:00,50.4,48.7,30.04,West,267,0.0,0.0,94,0.00,,,0.30,0,HR-IXPWINDi_r2_v1.2.,2013-10-08 02:25:00,
2013-10-07 22:30:00,50.1,48.4,30.04,West,267,0.0,0.0,94,0.00,,,0.30,0,HR-IXPWINDi_r2_v1.2.,2013-10-08 02:30:00,
2013-10-07 22:35:00,49.8,48.1,30.04,West,267,0.0,0.0,94,0.00,,,0.30,0,HR-IXPWINDi_r2_v1.2.,2013-10-08 02:35:00,
2013-10-07 22:40:00,49.7,48.0,30.04,West,267,0.0,0.0,94,0.00,,,0.30,0,HR-IXPWINDi_r2_v1.2.,2013-10-08 02:40:00,
2013-10-07 22:45:00,49.5,47.8,30.04,West,267,0.0,2.0,94,0.00,,,0.30,0,HR-IXPWINDi_r2_v1.2.,2013-10-08 02:45:00,
2013-10-07 22:50:00,49.3,47.6,30.05,West,267,0.0,2.0,94,0.00,,,0.30,0,HR-IXPWINDi_r2_v1.2.,2013-10-08 02:50:00,
2013-10-07 22:55:00,49.0,47.3,30.05,West,267,0.0,0.0,94,0.00,,,0.30,0,HR-IXPWINDi_r2_v1.2.,2013-10-08 02:55:00,
2013-10-07 23:01:00,49.0,47.6,30.05,West,267,0.0,0.0,95,0.00,,,0.30,0,HR-IXPWINDi_r2_v1.2.,2013-10-08 03:01:00,
2013-10-07 23:06:00,49.0,47.6,30.05,West,267,0.0,0.0,95,0.00,,,0.30,0,HR-IXPWINDi_r2_v1.2.,2013-10-08 03:06:00,
2013-10-07 23:11:00,49.0,47.6,30.05,West,267,0.0,0.0,95,0.00,,,0.30,0,HR-IXPWINDi_r2_v1.2.,2013-10-08 03:11:00,
2013-10-07 23:16:00,48.7,47.3,30.05,West,267,0.0,0.0,95,0.00,,,0.30,0,HR-IXPWINDi_r2_v1.2.,2013-10-08 03:16:00,
2013-10-07 23:21:00,48.7,47.3,30.05,West,267,0.0,0.0,95,0.00,,,0.30,0,HR-IXPWINDi_r2_v1.2.,2013-10-08 03:21:00,
2013-10-07 23:27:00,48.6,47.2,30.05,West,267,0.0,0.0,95,0.00,,,0.30,0,HR-IXPWINDi_r2_v1.2.,2013-10-08 03:27:00,
2013-10-07 23:32:00,48.4,47.0,30.05,West,267,0.0,0.0,95,0.00,,,0.30,0,HR-IXPWINDi_r2_v1.2.,2013-10-08 03:32:00,
2013-10-07 23:37:00,48.3,46.9,30.05,West,267,0.0,0.0,95,0.00,,,0.30,0,HR-IXPWINDi_r2_v1.2.,2013-10-08 03:37:00,
2013-10-07 23:43:00,48.0,46.6,30.05,West,267,0.0,0.0,95,0.00,,,0.30,0,HR-IXPWINDi_r2_v1.2.,2013-10-08 03:43:00,
2013-10-07 23:48:00,47.9,46.5,30.05,West,267,0.0,0.0,95,0.00,,,0.30,0,HR-IXPWINDi_r2_v1.2.,2013-10-08 03:48:00,
2013-10-07 23:53:00,48.1,46.7,30.05,West,267,0.0,0.0,95,0.00,,,0.30,0,HR-IXPWINDi_r2_v1.2.,2013-10-08 03:53:00,
2013-10-07 23:58:00,47.6,46.2,30.06,West,267,0.0,0.0,95,0.00,,,0.30,0,HR-IXPWINDi_r2_v1.2.,2013-10-08 03:58:00,